User: anonymous   Login
Location: Pegasus Observatory
(35.6569°N, 82.5850°W)
Time: 11:05:39
(UTC-04:00)
Language:

DIWATA 2B (PO-101) - Orbit

View from above orbital plane
View from above orbital plane
View from above satellite
View from above satellite

Ground track
Ground track

The orbit data is extracted from the following two-line orbital elements,

1 43678U 18084H   20095.48256598  .00000019  00000-0  75823-5 0  9992
2 43678  97.8724 213.9364 0011357  65.0824 295.1589 14.91615180 77994
Epoch (UTC): 04 April 2020 11:34:53
Eccentricity: 0.0011357
inclination: 97.8724°
perigee height: 585 km
apogee height: 601 km
right ascension of ascending node: 213.9364°
argument of perigee: 65.0824°
revolutions per day: 14.91615180
mean anomaly at epoch: 295.1589°
orbit number at epoch: 7799

The dashed part of the orbit path shows where the satellite is in the earth's shadow,  

DLR